Preview of NWS' New Version of Forecast
This preview is not operational and should not be used for support decisions.

Regional Weather Roundup (RWR)

Issued by National Weather Service (NWS)

                            
000
ASUS45 KBOU 211510
RWRCO 

WEATHER ROUNDUP FOR COLORADO
NATIONAL WEATHER SERVICE DENVER/BOULDER CO
900 AM MDT SUN JUL 21 2019

NOTE: "FAIR" INDICATES FEW OR NO CLOUDS BELOW 12000 FEET WITH NO
SIGNIFICANT WEATHER AND/OR OBSTRUCTIONS TO VISIBILITY.

COZ001>005-013-030-031-211600-
...NORTHWEST COLORADO...
  
CITY           SKY/WX    TMP DP  RH WIND       PRES   REMARKS
CRAIG          FAIR      70  49  47 N3        30.24R                  
HAYDEN         FAIR      67  49  52 E7        30.28R                  
MEEKER         FAIR      66  41  40 NE3       30.25S                  
RANGELY        FAIR      70  44  38 CALM      30.17S                  
RABBIT EARS PA NOT AVBL                                               
STEAMBOAT SPGS FAIR      61  46  56 CALM      30.29S                  
WALDEN         NOT AVBL                                               
$$

COZ006>008-011-211600-
...WEST CENTRAL VALLEYS...
  
CITY           SKY/WX    TMP DP  RH WIND       PRES   REMARKS
GRAND JUNCTION FAIR      79  46  31 E10       30.13R                  
MONTROSE       FAIR      73  35  25 S6        30.22S                  
EAGLE          FAIR      61  46  57 CALM      30.33R                  
RIFLE          FAIR      68  48  48 E6        30.21R                  
DELTA          FAIR      73  43  34 N3        30.19S                  
NUCLA          FAIR      70  25  18 CALM      30.25R                  
$$

COZ017>023-064>068-211600-
...SOUTHWEST COLORADO...
  
CITY           SKY/WX    TMP DP  RH WIND       PRES   REMARKS
DURANGO        FAIR      70  41  34 CALM      30.27R                  
CORTEZ         FAIR      71  38  29 CALM      30.21R                  
PAGOSA SPRINGS FAIR      69  44  40 CALM      30.36S                  
TELLURIDE      FAIR      63  32  31 CALM      30.48S                  
WOLF CREEK PAS NOT AVBL                                               
$$

COZ009-010-012-014-032>034-037-058>063-211600-
...CENTRAL COLORADO...
  
CITY           SKY/WX    TMP DP  RH WIND       PRES   REMARKS
ASPEN          FAIR      63  39  41 E3        30.35S                  
BUENA VISTA    FAIR      64  43  46 W5        30.38S                  
COPPER MTN     FAIR      59  25  27 W7G18     30.68R                  
BERTHOUD PASS  FAIR      50  36  57 CALM      30.71R                  
COTTONWOOD PAS NOT AVBL                                               
GUNNISON       FAIR      58  47  66 VRB3      30.42R                  
GRANBY         NOT AVBL                                               
KREMMLING      FAIR      59  46  63 CALM      30.38R                  
LEADVILLE      FAIR      56  39  53 CALM      30.50R                  
SALIDA         FAIR      65  47  52 CALM      30.44S                  
SUNLIGHT       FAIR      59  30  33 CALM      30.60R                  
WILKERSON PASS FAIR      61  19  20 NW6       30.64R                  
$$

COZ069>075-211600-
...SAN LUIS VALLEY/SANGRE DE CRISTO MOUNTAINS...
  
CITY           SKY/WX    TMP DP  RH WIND       PRES   REMARKS
ALAMOSA        NOT AVBL                                               
DEL NORTE      FAIR      66  45  45 W8        30.40S                  
LA VETA PASS   NOT AVBL                                               
SAGUACHE       FAIR      64  45  48 CALM      30.39R                  
$$

COZ035-036-038>040-211600-
...NORTHERN COLORADO FRONT RANGE...
  
CITY           SKY/WX    TMP DP  RH WIND       PRES   REMARKS
DENVER INTL AP FAIR      71  57  61 E3        30.19R                  
AURORA         MOSUNNY   69  57  65 CALM      30.20R                  
FRONT RANGE AP MOSUNNY   72  57  60 NE3       30.20R                  
ERIE MUNI ARPT FAIR      69  57  66 CALM      30.23R                  
BOULDER MUN AP FAIR      68  57  68 E6        30.18R                  
CENTENNIAL     FAIR      70  54  56 CALM      30.20R                  
BROOMFIELD     MOSUNNY   68  55  64 CALM      30.20R                  
FORT COLLINS   FAIR      69  59  70 E6        30.19R                  
LONGMONT       FAIR      73  58  57 NE6       30.19R                  
$$

COZ041-046-047-076>085-087-088-211600-
...PIKES PEAK/PALMER DIVIDE AND SOUTHERN FOOTHILLS...
  
CITY           SKY/WX    TMP DP  RH WIND       PRES   REMARKS
COLO. SPRINGS  PTSUNNY   67  58  72 S12       30.25R                  
A. F. ACADEMY  FAIR      66  56  70 SE3       30.24R                  
SCHRIEVER AFB  NOT AVBL                                               
CHEYENNE MTN   NOT AVBL                                               
ELLICOTT         N/A    N/A N/A N/A W5        30.23S                  
FALCON         FAIR      66  53  63 SW10G17   30.29R                  
FORT CARSON    FAIR      71  59  66 S12       30.20S                  
LIMON          FAIR      70  61  73 VRB3      30.20R                  
MONUMENT HILL  FAIR      66  55  68 S10       30.29R                  
CANON CITY     FAIR      77  50  38 W13G22    30.18                   
WALSENBURG     NOT AVBL                                               
TRINIDAD       FAIR      75  50  41 W5        30.22S                  
$$

COZ042>045-048>051-090-091-211600-
...NORTHEAST COLORADO...
  
CITY           SKY/WX    TMP DP  RH WIND       PRES   REMARKS
GREELEY ARPT   PTSUNNY   69  60  73 E5        30.17R                  
AKRON          CLOUDY    67  62  84 N9        30.18R                  
BURLINGTON     CLOUDY    69  63  81 N5        30.15R                  
WRAY           CLOUDY    64  64 100 E5        30.15R FOG              
YUMA           CLOUDY    64  59  82 N9        30.16R                  
STERLING       CLOUDY    70  59  68 NE8       30.14R                  
HOLYOKE        CLOUDY    66  61  82 E3        30.14S                  
FORT MORGAN    NOT AVBL                                               
$$

COZ086-089-092>099-211600-
...SOUTHEAST COLORADO...
  
CITY           SKY/WX    TMP DP  RH WIND       PRES   REMARKS
PUEBLO         FAIR      71  61  70 VRB3      30.15S                  
LA JUNTA       FAIR      74  64  71 W6        30.12R                  
LAMAR          FAIR      78  66  66 NE7       30.09R                  
SPRINGFIELD      N/A     80  54  40 NW9       30.11R                  
$$